This demonstration page uses our WeatherBlox Daily Observations layout. Learn more.

Left ArrowRight Arrow

Hourly Observations for February 21, 2018

Temp ( °F °C ) Dew Point ( °F °C ) Humidity (%) Winds ( mph kmh ) Pressure ( in mb ) Visibility ( mi km ) Precip ( " mm )
12:53 am 00:53 Clear 6 -14.4 1 -17.2 79 79 NW 3 6 30.59 1036 10 16 0.00 0.00
1:53 am 01:53 Clear 5 -15 0 -17.8 79 79 N 6 9 30.59 1036 10 16 0.00 0.00
2:53 am 02:53 Clear 3 -16.1 -1 -18.3 83 83 NW 7 11 30.60 1036 10 16 0.00 0.00
3:53 am 03:53 Clear 3 -16.1 -2 -18.9 79 79 Calm 30.60 1036 10 16 0.00 0.00
4:53 am 04:53 Clear 4 -15.6 -2 -18.9 76 76 Calm 30.61 1037 10 16 0.00 0.00
5:53 am 05:53 Clear 4 -15.6 -1 -18.3 80 80 Calm 30.61 1037 10 16 0.00 0.00
6:53 am 06:53 Clear 2 -16.7 -2 -18.9 83 83 Calm 30.65 1038 10 16 0.00 0.00
7:53 am 07:53 Sunny 2 -16.7 -3 -19.4 80 80 Calm 30.66 1038 10 16 0.00 0.00
8:53 am 08:53 Sunny 9 -12.8 0 -17.8 66 66 ENE 5 7 30.68 1039 10 16 0.00 0.00
9:53 am 09:53 Sunny 13 -10.6 0 -17.8 56 56 E 6 9 30.69 1039 10 16 0.00 0.00
10:53 am 10:53 Sunny 16 -8.9 0 -17.8 49 49 Calm 30.68 1039 10 16 0.00 0.00
11:53 am 11:53 Sunny 20 -6.7 0 -17.8 41 41 Calm 30.67 1039 10 16 0.00 0.00
12:53 pm 12:53 Sunny 22 -5.6 1 -17.2 40 40 SSE 7 11 30.64 1038 10 16 0.00 0.00
1:53 pm 13:53 Sunny 25 -3.9 1 -17.2 35 35 S 6 9 30.60 1036 10 16 0.00 0.00
2:53 pm 14:53 Sunny 26 -3.3 2 -16.7 35 35 VRB 6 9 30.57 1035 10 16 0.00 0.00
3:53 pm 15:53 Mostly Sunny 27 -2.8 2 -16.7 34 34 SE 6 9 30.57 1035 10 16 0.00 0.00
4:53 pm 16:53 Mostly Cloudy 27 -2.8 4 -15.6 37 37 E 10 17 30.58 1035 10 16 0.00 0.00
5:53 pm 17:53 Cloudy 26 -3.3 5 -15 40 40 E 10 17 30.57 1035 10 16 0.00 0.00
6:53 pm 18:53 Cloudy 25 -3.9 4 -15.6 40 40 E 10 17 30.56 1035 10 16 0.00 0.00
7:53 pm 19:53 Cloudy 25 -3.9 5 -15 42 42 E 9 15 30.56 1035 10 16 0.00 0.00
8:53 pm 20:53 Cloudy 24 -4.4 6 -14.4 46 46 E 9 15 30.54 1034 10 16 0.00 0.00
9:53 pm 21:53 Cloudy with Light Snow 23 -5 8 -13.3 53 53 E 9 15 30.54 1034 8 13 0.00 0.03
10:53 pm 22:53 Cloudy 22 -5.6 9 -12.8 57 57 E 10 17 30.53 1034 10 16 0.00 0.03
11:53 pm 23:53 Cloudy 22 -5.6 10 -12.2 60 60 ENE 10 17 30.52 1034 10 16 0.00 0.00

Powered by AerisWeather